Birchwood, AK

11:23 PM AKDT on March 24, 2017 (GMT -0800)
Birchwood

Weather History for PABV - May, 2013

Change the Weather History Date:

Wednesday, May 8, 2013

  Actual Average Record
Temperature  
Mean Temperature 44 °F -  
Max Temperature 53 °F 50 °F 64 °F (2005)
Min Temperature 35 °F 33 °F 28 °F (1991)
Degree Days  
Heating Degree Days 21    
Moisture  
Dew Point 28 °F    
Average Humidity 56    
Maximum Humidity 93    
Minimum Humidity 33    
Precipitation  
Precipitation 0.25 in - - ()
Sea Level Pressure  
Sea Level Pressure 30.25 in    
Wind  
Wind Speed 3 mph (WSW)    
Max Wind Speed 7 mph    
Max Gust Speed -    
Visibility 10 miles    
Events      
Averages and records for this station are not official NWS values.
T = Trace of Precipitation, MM = Missing Value Source: NWS Daily Summary

Daily Weather History Graph

Daily Weather History Graph

Search for Another Location

Airport or City:

Trip Planner

Search our weather history database for the weather conditions in past years. The results will help you decide how hot, cold, wet, or windy it might be!

Date:

Astronomy

May. 08, 2013 Rise Set
Actual Time 5:26 AM AKDT 10:24 PM AKDT
Civil Twilight 4:22 AM AKDT 11:28 PM AKDT
Nautical Twilight 2:26 AM AKDT 1:22 AM AKDT
Astronomical Twilight Sun does not rise Sun does not rise
Moon 5:05 AM AKDT (5/8) 9:18 PM AKDT (5/8)
Length of Visible Light 19h 06m
Length of Day
16h 57m
Waning Crescent, 1% of the Moon is Illuminated
May 8
Waning Crescent
May 9
New
May 17
First Quarter
May 24
Full
May 31
Last Quarter

Hourly Weather History & Observations

Time (AKDT) Temp. Windchill Dew Point Humidity Pressure Visibility Wind Dir Wind Speed Gust Speed Precip Events Conditions
12:16 AM 42.8 °F 38.6 °F 28.4 °F 57% 30.25 in 10.0 mi South 6.9 mph - N/A   Overcast
12:36 AM 42.8 °F 39.3 °F 28.4 °F 57% 30.25 in 10.0 mi South 5.8 mph - N/A   Overcast
12:56 AM 42.8 °F 41.1 °F 28.4 °F 57% 30.26 in 10.0 mi South 3.5 mph - N/A   Overcast
1:16 AM 41.0 °F 39.0 °F 28.4 °F 61% 30.26 in 10.0 mi SSW 3.5 mph - N/A   Overcast
1:36 AM 39.2 °F 35.9 °F 28.4 °F 65% 30.26 in 10.0 mi South 4.6 mph - N/A   Overcast
1:56 AM 41.0 °F 36.4 °F 28.4 °F 61% 30.26 in 10.0 mi South 6.9 mph - N/A   Overcast
2:16 AM 41.0 °F 36.4 °F 26.6 °F 57% 30.26 in 10.0 mi South 6.9 mph - N/A   Overcast
2:36 AM 41.0 °F 38.0 °F 26.6 °F 57% 30.26 in 10.0 mi SSE 4.6 mph - N/A   Overcast
2:56 AM 41.0 °F - 26.6 °F 57% 30.26 in 10.0 mi Calm Calm - N/A   Overcast
3:16 AM 39.2 °F - 26.6 °F 61% 30.26 in 10.0 mi Calm Calm - N/A   Overcast
3:36 AM 37.4 °F 34.9 °F 32.0 °F 81% 30.26 in 10.0 mi NNE 3.5 mph - N/A   Overcast
3:56 AM 37.4 °F - 32.0 °F 81% 30.26 in 10.0 mi Calm Calm - N/A   Overcast
4:16 AM 37.4 °F - 32.0 °F 81% 30.27 in 10.0 mi Calm Calm - N/A   Overcast
4:36 AM 37.4 °F - 30.2 °F 75% 30.27 in 10.0 mi Calm Calm - N/A   Overcast
4:56 AM 37.4 °F - 33.8 °F 87% 30.27 in 10.0 mi Calm Calm - N/A   Overcast
5:16 AM 35.6 °F - 33.8 °F 93% 30.26 in 10.0 mi Calm Calm - N/A   Overcast
5:36 AM 37.4 °F - 28.4 °F 70% 30.27 in 10.0 mi Calm Calm - N/A   Mostly Cloudy
5:56 AM 37.4 °F 33.8 °F 28.4 °F 70% 30.27 in 10.0 mi SSW 4.6 mph - N/A   Clear
6:16 AM 35.6 °F - 28.4 °F 75% 30.27 in 10.0 mi Calm Calm - N/A   Clear
6:36 AM 35.6 °F - 28.4 °F 75% 30.27 in 10.0 mi Calm Calm - N/A   Clear
6:56 AM 35.6 °F - 30.2 °F 81% 30.27 in 10.0 mi Calm Calm - N/A   Clear
7:16 AM 35.6 °F - 30.2 °F 81% 30.27 in 10.0 mi Calm Calm - N/A   Clear
7:36 AM 35.6 °F - 30.2 °F 81% 30.27 in 10.0 mi Calm Calm - N/A   Clear
7:56 AM 35.6 °F - 30.2 °F 81% 30.27 in 10.0 mi Calm Calm - N/A   Clear
8:16 AM 35.6 °F 32.8 °F 28.4 °F 75% 30.27 in 10.0 mi WNW 3.5 mph - N/A   Clear
8:36 AM 35.6 °F - 30.2 °F 81% 30.28 in 10.0 mi Calm Calm - N/A   Clear
8:56 AM 35.6 °F - 30.2 °F 81% 30.28 in 9.0 mi Calm Calm - 0.20 in   Clear
9:16 AM 35.6 °F - 30.2 °F 81% 30.28 in 1.5 mi Calm Calm - 0.05 in   Unknown
9:36 AM 35.6 °F - 28.4 °F 75% 30.28 in 10.0 mi Calm Calm - 0.05 in   Clear
9:56 AM 37.4 °F - 28.4 °F 70% 30.28 in 10.0 mi Calm Calm - 0.05 in   Clear
10:16 AM 37.4 °F - 28.4 °F 70% 30.28 in 10.0 mi Calm Calm - N/A   Clear
10:36 AM 37.4 °F - 28.4 °F 70% 30.28 in 10.0 mi Calm Calm - N/A   Clear
10:56 AM 39.2 °F - 30.2 °F 70% 30.28 in 10.0 mi Calm Calm - N/A   Clear
11:16 AM 39.2 °F 37.0 °F 30.2 °F 70% 30.27 in 10.0 mi WNW 3.5 mph - N/A   Clear
11:36 AM 41.0 °F 39.0 °F 30.2 °F 65% 30.27 in 10.0 mi NW 3.5 mph - N/A   Clear
11:56 AM 42.8 °F - 28.4 °F 57% 30.27 in 10.0 mi Calm Calm - N/A   Clear
12:16 PM 44.6 °F 43.1 °F 28.4 °F 53% 30.27 in 10.0 mi North 3.5 mph - N/A   Clear
12:36 PM 44.6 °F - 30.2 °F 57% 30.27 in 10.0 mi Calm Calm - N/A   Clear
12:56 PM 44.6 °F 43.1 °F 28.4 °F 53% 30.27 in 10.0 mi NNE 3.5 mph - N/A   Clear
1:16 PM 46.4 °F - 28.4 °F 50% 30.26 in 10.0 mi Calm Calm - N/A   Clear
1:36 PM 48.2 °F - 26.6 °F 43% 30.26 in 10.0 mi Calm Calm - N/A   Clear
1:56 PM 48.2 °F - 28.4 °F 46% 30.26 in 10.0 mi Calm Calm - N/A   Clear
2:16 PM 50.0 °F - 26.6 °F 40% 30.26 in 10.0 mi West 3.5 mph - N/A   Clear
2:36 PM 50.0 °F - 26.6 °F 40% 30.25 in 10.0 mi WNW 3.5 mph - N/A   Clear
2:56 PM 50.0 °F - 26.6 °F 40% 30.25 in 10.0 mi Calm Calm - N/A   Clear
3:16 PM 51.8 °F - 24.8 °F 35% 30.25 in 10.0 mi Calm Calm - N/A   Clear
3:36 PM 51.8 °F - 26.6 °F 38% 30.25 in 10.0 mi WNW 3.5 mph - N/A   Clear
3:56 PM 53.6 °F - 26.6 °F 35% 30.24 in 10.0 mi NNW 3.5 mph - N/A   Clear
4:16 PM 53.6 °F - 28.4 °F 38% 30.24 in 10.0 mi NW 4.6 mph - N/A   Clear
4:36 PM 53.6 °F - 28.4 °F 38% 30.24 in 10.0 mi WNW 5.8 mph - N/A   Clear
4:56 PM 53.6 °F - 26.6 °F 35% 30.23 in 10.0 mi NNW 4.6 mph - N/A   Clear
5:16 PM 53.6 °F - 26.6 °F 35% 30.23 in 10.0 mi WNW 4.6 mph - N/A   Clear
5:36 PM 53.6 °F - 30.2 °F 41% 30.22 in 10.0 mi West 4.6 mph - N/A   Clear
5:56 PM 53.6 °F - 26.6 °F 35% 30.22 in 10.0 mi West 5.8 mph - N/A   Clear
6:16 PM 53.6 °F - 24.8 °F 33% 30.22 in 10.0 mi West 5.8 mph - N/A   Clear
6:36 PM 53.6 °F - 24.8 °F 33% 30.22 in 10.0 mi West 4.6 mph - N/A   Clear
6:56 PM 53.6 °F - 24.8 °F 33% 30.22 in 10.0 mi West 6.9 mph - N/A   Clear
7:16 PM 51.8 °F - 24.8 °F 35% 30.22 in 10.0 mi WSW 5.8 mph - N/A   Clear
7:36 PM 51.8 °F - 26.6 °F 38% 30.22 in 10.0 mi West 5.8 mph - N/A   Clear
7:56 PM 51.8 °F - 26.6 °F 38% 30.21 in 10.0 mi WSW 3.5 mph - N/A   Clear
8:16 PM 50.0 °F - 26.6 °F 40% 30.22 in 10.0 mi WSW 4.6 mph - N/A   Clear
8:36 PM 50.0 °F - 26.6 °F 40% 30.22 in 10.0 mi WSW 3.5 mph - N/A   Clear
8:56 PM 50.0 °F - 24.8 °F 37% 30.22 in 10.0 mi SW 3.5 mph - N/A   Clear
9:16 PM 50.0 °F - 24.8 °F 37% 30.22 in 10.0 mi Calm Calm - N/A   Clear
9:36 PM 51.8 °F - 23.0 °F 33% 30.22 in 10.0 mi SSW 3.5 mph - N/A   Clear
9:56 PM 50.0 °F - 24.8 °F 37% 30.22 in 10.0 mi SSW 3.5 mph - N/A   Clear
10:16 PM 48.2 °F - 24.8 °F 40% 30.23 in 10.0 mi SE 3.5 mph - N/A   Clear
10:36 PM 46.4 °F 45.2 °F 26.6 °F 46% 30.23 in 10.0 mi NE 3.5 mph - N/A   Clear
10:56 PM 46.4 °F 43.5 °F 26.6 °F 46% 30.24 in 10.0 mi ENE 5.8 mph - N/A   Clear
11:16 PM 46.4 °F - 26.6 °F 46% 30.24 in 10.0 mi Calm Calm - N/A   Clear
11:36 PM 44.6 °F - 28.4 °F 53% 30.24 in 10.0 mi Calm Calm - N/A   Clear
11:56 PM 44.6 °F - 28.4 °F 53% 30.25 in 10.0 mi Calm Calm - N/A   Clear